LTCEUGSB

Guest
Details From LTCE - ERZURUM
To UGSB - BATUMI
Flight Number -
Tags generated
Created
Modified
Stats Distance 102 nm / 189 km
Max Altitude 100 ft / 30 m
Waypoints 3
Social Downloads 0
Likes 0
Share VATSIM

Download

Looking for another format? Having issues loading an existing format? Contact us
Advertisement - Login to hide

Notes

Basic altitude profile: - Ascent Rate: 2500ft/min - Ascent Speed: 250kts - Cruise Altitude: 35000ft - Cruise Speed: 420kts - Descent Rate: 1500ft/min - Descent Speed: 250kts Options: - Use NATs: yes - Use PACOTS: yes - Use low airways: yes - Use high airways: yes

Route

LTCE LU UGSB

ID Type Via Altitude Latitude Longitude Leg Dist Tot Dist Heading (true) Name
O LTCE APT - 0 ft / 0 m 39.95223˚ 41.17010˚ - 0 nm - ERZURUM
LU NDB - 100 ft / 30 m 41.60083˚ 41.61389˚ 101 nm 101 nm 11° / 12° BATUMI NDB
O UGSB APT - 0 ft / 0 m 41.60966˚ 41.60032˚ 0 nm 101 nm 311° / 311° BATUMI

Altitude Profile

Advertisement - Login to hide

LTCE

Details ICAO LTCE (ERZ)
Name ERZURUM
Region Turkey
Timezone Europe/Istanbul (UTC+3.0)
Stats Elevation 5,763 ft / 1,757 m (AMSL)
Location 39.952230° 41.170103°
Runways 3
Magnetic Variation 6.145° E

METAR

LTCE 211120Z 28006KT 9999 -SHRA FEW025CB BKN030 17/09 Q1019 NOSIG RMK RWY08R 23007KT 210V270 RWY26R 28006KT 260V320 RWY08L 22007G17KT 190V260

Decode

TAF

Not found

Departure Runways

ID Width Length Bearing (true) Bearing (mag) Surface Threshold Offset Overrun Length
05 49 ft / 15 m 3,025 ft / 922 m 48.18° 42.04° Asphalt 0 ft / 0 m 0 ft / 0 m
08L 148 ft / 45 m 12,471 ft / 3,801 m 88.04° 81.90° Concrete 0 ft / 0 m 534 ft / 163 m
08R 98 ft / 30 m 12,454 ft / 3,796 m 88.12° 81.98° Concrete 0 ft / 0 m 490 ft / 149 m
23 49 ft / 15 m 3,025 ft / 922 m 228.18° 222.04° Asphalt 0 ft / 0 m 0 ft / 0 m
26L 98 ft / 30 m 12,454 ft / 3,796 m 268.15° 262.01° Concrete 0 ft / 0 m 490 ft / 149 m
26R 148 ft / 45 m 12,471 ft / 3,801 m 268.07° 261.93° Concrete 0 ft / 0 m 472 ft / 144 m

UGSB

Details ICAO UGSB (BUS)
Name BATUMI
Region Georgia
Timezone Asia/Tbilisi (UTC+4.0)
Stats Elevation 105 ft / 32 m (AMSL)
Location 41.609660° 41.600318°
Runways 1
Magnetic Variation 6.583° E

METAR

UGSB 211130Z 21009KT 9999 FEW013 BKN030 20/18 Q1020 R13/2///55 NOSIG

Decode

TAF

Not found

Destination Runways

ID Width Length Bearing (true) Bearing (mag) Surface Threshold Offset Overrun Length
13 150 ft / 46 m 7,321 ft / 2,232 m 130.81° 124.23° Asphalt 0 ft / 0 m 690 ft / 210 m
31 150 ft / 46 m 7,321 ft / 2,232 m 310.82° 304.24° Asphalt 0 ft / 0 m 0 ft / 0 m

Approach Navaids

Runway Type Ident Frequency Range Bearing (true) Bearing (mag) Slope Elevation
13 Localiser ILU 110.30 MHz 18 nm / 33 km 130.94° 124.36° - 121 ft / 37 m (AMSL)
13 Glidescope ILU 110.30 MHz 10 nm / 19 km 130.82° 124.23° 2.50° 127 ft / 39 m (AMSL)